Weather Roundup
Issued by NWS Springfield, MO

Home | Current Version | Previous Version | Text Only | Print | Product List | Glossary On
Versions: 1 2 3 4 5 6 7 8 9 10 11 12 13 14 15 16 17 18 19 20 21 22 23 24 25 26 27 28 29 30 31 32 33 34 35 36 37 38 39 40 41 42 43 44 45 46 47 48 49 50
000
NZUS99 KSGF 031057
HRRSGF

HOURLY WEATHER
NATIONAL WEATHER SERVICE SPRINGFIELD MO
600 AM CDT THU SEP 03 2015

......SGF CWA......

CITY           SKY/WX    TMP DP  RH WIND       PRES   REMARKS
SPRINGFIELD    CLEAR     70  66  87 S9        30.01S
JOPLIN         CLEAR     70  66  87 S6        29.99S
WEST PLAINS    CLEAR     65  62  90 CALM      30.06R FOG
ROLLA          PTCLDY    68  66  93 S7        30.00F

......SURROUNDING SGF CWA......

CITY           SKY/WX    TMP DP  RH WIND       PRES   REMARKS
CHANUTE        PTCLDY    69  67  93 S7        29.96S
PARSONS        CLEAR     71  68  90 S3        29.97S
COFFEYVILLE    CLEAR     69  67  93 S5        29.96S
EMPORIA        PTCLDY    70  66  87 S12       29.93S
HARRISON AR    CLEAR     67  66  97 SE3       30.04R

......KANSAS AND MISSOURI......

CITY           SKY/WX    TMP DP  RH WIND       PRES   REMARKS
KANSAS CTY INT PTCLDY    73  67  81 S12       29.94S
SEDALIA        MOCLDY    73  67  81 S7        29.98S
ST JOSEPH      CLEAR     72  68  87 S6        29.91S
ST LOUIS       PTCLDY    77  68  73 CALM      30.00S
WICHITA        PTCLDY    71  63  75 S8        29.93R
TOPEKA         PTCLDY    75  67  76 S3        29.92R
OLATHE         CLEAR     70  67  90 S6        29.95S

......TENNESSEE......

CITY           SKY/WX    TMP DP  RH WIND       PRES   REMARKS
MEMPHIS        NOT AVBL
NASHVILLE      PTCLDY    73  69  87 CALM      30.03R

......ARKANSAS.......

CITY           SKY/WX    TMP DP  RH WIND       PRES   REMARKS
FAYETTEVILLE   CLEAR     66  66 100 SE3       30.03S
FT SMITH       CLEAR     71  68  90 NE5       29.99S
LITTLE ROCK    CLEAR     72  70  93 CALM      30.01S

......OKLAHOMA.......

CITY           SKY/WX    TMP DP  RH WIND       PRES   REMARKS
TULSA          PTCLDY    73  68  84 S8        29.95R
PONCA CITY     PTCLDY    76  64  66 S7        29.94S
MCALESTER      PTCLDY    72  65  78 CALM      29.99R
OKLAHOMA CITY  PTCLDY    67  64  90 S6        29.96R

......IOWA............

CITY           SKY/WX    TMP DP  RH WIND       PRES   REMARKS
DES MOINES     NOT AVBL
QUAD CITIES    PTCLDY    72  67  84 CALM      29.95R

......ILLINOIS........

CITY           SKY/WX    TMP DP  RH WIND       PRES   REMARKS
QUINCY         NOT AVBL
CHICAGO        PTCLDY    73  68  84 SW7       29.95S




USA.gov is the U.S. government's official web portal to all federal, state and local government web resources and services.